Tracking 30995 objects as of 7-Jul-2025
HD Live streaming from Space Station
objects crossing your sky now

NIMBUS 3


NIMBUS 3 is no longer on orbit


NORAD ID: 3890
Int'l Code: 1969-037A
Perigee: N/A
Apogee: N/A
Inclination: N/A
Period: N/A
Semi major axis: N/A
RCS: N/A
Launch date: April 14, 1969
Source: United States (US)
Launch site: AIR FORCE WESTERN TEST RANGE (AFWTR)
Decay date: 1972-01-22
Your satellite tracking list
Your tracking list is empty




NASA's NSSDC Master Catalog

Two Line Element Set (TLE):
1 03890U 69037A   25187.59431775 -.00000026  00000-0  29710-4 0  9991
2 03890  99.7532  75.7783 0040256  87.6098 331.5417 13.42649679754404
Source of the keplerian elements: AFSPC